OPS 4682 DEB, 38364

Orbit data source: Space-Track

OPS 4682 DEB, 38364 is space debris in LEO originally from a launch on Sat, 03 Apr 1965 UTC launched from the Air Force Western Test Range (AFWTR). Debris objects in space refer to the collection of defunct objects orbiting the Earth. Examples of debris include non-operational satellites, rocket bodies, and fragments generated from explosions, collisions, or faulty payload assembly.

Loading next visibility...
Identifier
38364, 1965-027BR
Orbit
LEO
Country
Flag of USUS
Related business
Manufacturer
Unknown
Mission
Spacecraft
Bus & Motor
Unknown
Mass
Unknown
Launch date (UTC)
1965-04-03 (61 years ago)
Launch vehicle
Unknown
Launch site
Air Force Western Test Range (AFWTR)
Object type
Payload
Rocket body
Debris
Shape & HBR
Unknown shape, 0.1 m
Radar Cross Section
Medium (>0.1 m² and <1 m²)

Expand to show TLE details & history
Last TLE update: 1 day ago

TLE from 1 day ago
0 OPS 4682 DEB
1 38364U 65027BR  26173.97286563 -.00000110  00000-0 -41085-3 0  9994
2 38364  90.2480  11.9888 0036210 100.2460 260.2746 12.96463658663326
Epoch: 2026-06-22T23:20Z
TLE epoch observation values (Epoch: 2026-06-22T23:20:55.590Z)
Latitude
-0.00005°
Longitude
110.60607°
Altitude
1,283.632 km
Speed
7.212 km/s
True Right ascension
00h 47m 57s
True Declination
0° 00' 00"
Sunlit
Object was in daylight at epoch
Visualization orbit readout
Latitude
Unknown
Longitude
Unknown
Altitude
Unknown
Speed
Unknown
Apparent Right ascension
Unknown
Apparent Declination
Unknown
Sunlit
N/A
Visualization observer readout
Local Sidereal Time
19:27:01
Azimuth
Unknown
Elevation
Unknown
Doppler factor
Unknown
Orbital elements
Apogee altitude
1,300.811 km
Perigee altitude
1,245.401 km
Semi-major axis
7,651.243 km
Eccentricity
0.00362
Inclination
90.248°
RAAN
11.9888°
Arg. of periapsis
100.246°
True anomaly
259.86594°
Mean anomaly
260.2746°
Eccentric anomaly
260.07024°
Mean motion
3.24299 °/min
Orbital period
111.01 mins
BSTAR
-0.00041085
Loading maneuver chart data...
Computing Atmospheric mass density...
Loading historical data...
Loading historical data...
Loading historical data...
Loading historical data...
Loading historical data...
Loading historical data...
Loading historical data...

Documentation

Showing up to 5 results
|